Токио, Јапонија

02:58 PM JST на 23 Јули, 2018 (GMT +0900)
Kamata | | Change Station

Elev 30 ft 35.57 °N, 139.70 °E | Updated 5 seconds ago

Претежно облачно
Претежно облачно
102.7 °F
Feels Like 119 °F
С
8
Ветер Променлив Ветер from ЈЈЗ
Gusts 11.0 mph

Денес
High -- | Low -- °F
--% Chance of Precip.
Вчера
High -- | Low -- °F
Precip. -- инчи
Притисок 29.62 инчи
Видливост 6.2 миљи
Облаци Few 3000 ft
Индекс на топлина 119 °F
Точка на kондензација 76 °F
Влажност 43%
Дожд 0.00 инчи
Височина на снег Not available.
4:42 AM 6:52 PM
Вториот квартал, 82% visible
METAR RJTT 230530Z 18012KT 9999 FEW030 BKN/// 36/24 Q1003 NOSIG RMK 1CU030 A2964
Притисок 29.62 инчи
Видливост 6.2 миљи
Облаци Few 3000 ft
Индекс на топлина 119 °F
Точка на kондензација 76 °F
Влажност 43%
Дожд 0.00 инчи
Височина на снег Not available.
4:42 AM 6:52 PM
Вториот квартал, 82% visible
METAR RJTT 230530Z 18012KT 9999 FEW030 BKN/// 36/24 Q1003 NOSIG RMK 1CU030 A2964

Get Severe Weather Alerts

Thanks for signing up!

Be on the lookout for a verification email in your inbox.

You'll start receiving the daily forecast at 6 AM.

×

10-Day Weather Forecast

No radar image for this location.
×

Almanac

Астрономијата

Jul. 23, 2018 Изгревање Заоѓање
Актуелно време
Граѓанскиот самрак
Наутички самрак
Астрономски самрак
Месечината
Должина на видливата светлина
Должина на денот
Tomorrow will be .
, % of the Moon is Illuminated

Екстреми денес

Country Highs Country Lows

Community

WunderPhotos

Category 6

Welcome to Category 6. This is the collective home for Weather Underground's featured writeups by Dr. Jeff Masters (right), Bob Henson (left), Chris Burt, and other regular contributors.

Nearby

Квалитетот на воздухот

  Квалитетот на воздухот AQ индекс Загадувач
Not available.

Височина на снег

Station Depth Висина

Earthquake Activity

Град Distance Mag. Time & Date
Minimum magnitude displayed is 2.5.

Coastal Water Temperatures

Место Температура

Stations

Nearby Weather Stations

Локација на станицата Темп. Лични чувство за темп. со ветерот Точка на kондензација Влажност Ветер Precip. Elev Ажурирани Тип